Date String (YYYY-MM-DD hh:mm:ss) UTC,Instrument flags,Ambient pressure (hPa),Sample flow (lpm),Bypass flow (lpm),Sample temperature (°C),Ambient temperature (°C),ASC tube jacket temperature (°C),LED temperature (°C),Box temperature (°C),Sample RH (%),Span deviation,Mass concentration (μg/m³),Mass concentration (μg/m³),Mass concentration (μg/m³)
DateTimeUTC,F1_M11,P_M11,Q1_M11,Q2_M11,T1_M11,T2_M11,T3_M11,T4_M11,T5_M11,U1_M11,ZSPAN_M11,X0_M11,X2_M11,X1_M11
2022-11-08 00:00:00,,0822.9,5.00,0.00,29.3,27.9,00.0,38.0,31.1,11.9,0002.2,0018.52,0008.05,0006.80
2022-11-08 00:01:00,,0822.9,5.00,0.00,29.3,27.9,00.0,38.0,31.1,11.9,0001.7,0019.40,0008.15,0006.86
2022-11-08 00:02:00,,0822.9,5.00,0.00,29.3,27.9,00.0,38.0,31.1,11.9,0002.1,0019.59,0008.20,0006.91
2022-11-08 00:03:00,,0823.0,5.00,0.00,29.3,27.9,00.0,38.0,31.1,11.9,0002.2,0019.49,0008.27,0006.96
2022-11-08 00:04:00,,0823.0,5.01,0.00,29.3,27.9,00.0,38.0,31.1,11.9,0001.3,0018.75,0008.34,0007.01
2022-11-08 00:05:00,,0823.0,5.00,0.00,29.3,27.9,00.0,38.0,31.1,11.8,0001.6,0018.23,0008.36,0007.05
2022-11-08 00:06:00,,0823.0,5.00,0.00,29.3,27.9,00.0,38.0,31.1,11.9,0002.8,0018.52,0008.45,0007.09
2022-11-08 00:07:00,,0823.0,4.99,0.00,29.3,27.9,00.0,38.0,31.1,11.8,0002.6,0018.42,0008.46,0007.13
2022-11-08 00:08:00,,0822.9,4.99,0.00,29.3,27.9,00.0,38.1,31.1,11.8,0002.1,0018.76,0008.53,0007.17
2022-11-08 00:09:00,,0823.1,5.00,0.00,29.3,27.9,00.0,38.1,31.1,11.8,0001.5,0019.60,0008.63,0007.22
2022-11-08 00:10:00,,0822.9,5.00,0.00,29.3,27.9,00.0,38.1,31.1,11.8,0001.3,0020.95,0008.71,0007.27
2022-11-08 00:11:00,,0823.0,5.00,0.00,29.3,27.9,00.0,38.1,31.1,11.8,0000.9,0020.92,0008.82,0007.31
2022-11-08 00:12:00,,0822.9,5.01,0.00,29.3,27.9,00.0,38.1,31.1,11.8,0001.5,0020.41,0008.78,0007.32
2022-11-08 00:13:00,,0823.0,5.00,0.00,29.3,27.9,00.0,38.1,31.1,11.8,0001.4,0020.36,0008.84,0007.31
2022-11-08 00:14:00,,0823.1,5.00,0.00,29.3,27.9,00.0,38.1,31.1,11.8,0001.3,0019.72,0008.83,0007.29
2022-11-08 00:15:00,,0823.1,5.00,0.00,29.3,27.9,00.0,38.1,31.1,11.8,0001.8,0019.24,0008.83,0007.28
2022-11-08 00:16:00,,0823.1,5.00,0.00,29.3,27.9,00.0,38.1,31.1,11.8,0001.5,0019.27,0008.85,0007.26
2022-11-08 00:17:00,,0823.1,4.99,0.00,29.3,27.9,00.0,38.1,31.1,11.8,0000.8,0019.11,0008.81,0007.26
2022-11-08 00:18:00,,0823.1,5.00,0.00,29.3,27.9,00.0,38.1,31.1,11.8,0000.5,0019.26,0008.90,0007.29
2022-11-08 00:19:00,,0823.1,5.00,0.00,29.3,27.9,00.0,38.1,31.1,11.8,0001.0,0019.27,0008.93,0007.29
2022-11-08 00:20:00,,0823.1,5.00,0.00,29.3,27.9,00.0,38.1,31.1,11.8,0001.4,0019.10,0008.96,0007.29
2022-11-08 00:21:00,,0823.1,5.00,0.00,29.3,27.8,00.0,38.1,31.1,11.8,0001.0,0018.79,0008.94,0007.27
2022-11-08 00:22:00,,0823.1,5.00,0.00,29.3,27.8,00.0,38.1,31.1,11.8,0000.8,0018.53,0008.82,0007.23
2022-11-08 00:23:00,,0823.1,4.99,0.00,29.3,27.8,00.0,38.1,31.1,11.9,0000.8,0018.73,0008.71,0007.17
2022-11-08 00:24:00,,0823.1,4.99,0.00,29.3,27.8,00.0,38.1,31.1,11.9,0001.1,0017.58,0008.54,0007.10
2022-11-08 00:25:00,,0823.2,5.00,0.00,29.3,27.8,00.0,38.1,31.0,11.9,0000.9,0017.39,0008.47,0007.05
2022-11-08 00:26:00,,0823.1,5.00,0.00,29.3,27.7,00.0,38.1,31.1,11.9,0001.0,0017.06,0008.41,0007.01
2022-11-08 00:27:00,,0823.1,5.00,0.00,29.3,27.7,00.0,38.1,31.0,11.9,0000.8,0017.22,0008.30,0006.95
2022-11-08 00:28:00,,0823.1,5.00,0.00,29.2,27.7,00.0,38.1,31.0,11.9,0000.8,0017.60,0008.23,0006.87
2022-11-08 00:29:00,,0823.1,5.00,0.00,29.2,27.7,00.0,38.1,31.0,11.9,0001.1,0016.76,0008.05,0006.76
2022-11-08 00:30:00,,0823.1,5.00,0.00,29.2,27.7,00.0,38.1,31.0,11.9,0000.8,0016.24,0007.92,0006.67
2022-11-08 00:31:00,,0823.1,5.01,0.00,29.2,27.7,00.0,38.0,31.0,11.9,0000.5,0015.92,0007.76,0006.61
2022-11-08 00:32:00,,0823.1,5.00,0.00,29.2,27.7,00.0,38.0,31.0,11.9,0000.5,0016.13,0007.68,0006.58
2022-11-08 00:33:00,,0823.1,5.00,0.00,29.2,27.7,00.0,38.0,31.0,11.9,0000.6,0016.13,0007.67,0006.56
2022-11-08 00:34:00,,0823.1,5.00,0.00,29.2,27.7,00.0,38.0,31.0,11.9,0000.7,0015.90,0007.74,0006.57
2022-11-08 00:35:00,,0823.1,5.00,0.00,29.2,27.7,00.0,38.0,31.0,11.9,0000.5,0016.39,0007.82,0006.62
2022-11-08 00:36:00,,0823.1,5.00,0.00,29.2,27.6,00.0,38.0,30.9,12.0,0000.7,0017.26,0007.87,0006.64
2022-11-08 00:37:00,,0823.1,5.00,0.00,29.2,27.6,00.0,38.0,30.9,12.0,0000.3,0018.35,0007.87,0006.65
2022-11-08 00:38:00,,0823.1,4.99,0.00,29.1,27.6,00.0,38.0,30.9,12.0,0000.5,0019.62,0007.90,0006.64
2022-11-08 00:39:00,,0823.1,4.99,0.00,29.1,27.6,00.0,38.0,30.9,12.0,0000.5,0018.96,0007.88,0006.63
2022-11-08 00:40:00,,0823.1,5.01,0.00,29.1,27.5,00.0,38.0,30.9,12.0,0000.6,0019.85,0007.89,0006.63
2022-11-08 00:41:00,,0823.1,5.01,0.00,29.1,27.5,00.0,38.0,30.9,12.1,0001.2,0020.33,0007.90,0006.63
2022-11-08 00:42:00,,0823.1,5.00,0.00,29.1,27.5,00.0,38.0,30.8,12.1,0001.6,0020.80,0007.94,0006.59
2022-11-08 00:43:00,,0823.1,5.00,0.00,29.1,27.5,00.0,38.0,30.8,12.1,0001.6,0019.82,0007.93,0006.54
2022-11-08 00:44:00,,0823.2,4.99,0.00,29.1,27.5,00.0,37.9,30.8,12.1,0001.4,0019.48,0007.89,0006.48
2022-11-08 00:45:00,,0823.2,5.00,0.00,29.0,27.5,00.0,37.9,30.8,12.0,0000.5,0019.39,0007.85,0006.43
2022-11-08 00:46:00,,0823.2,5.00,0.00,29.0,27.4,00.0,37.9,30.8,12.0,0000.7,0018.95,0007.79,0006.39
2022-11-08 00:47:00,,0823.2,5.00,0.00,29.0,27.4,00.0,37.9,30.8,12.1,0001.0,0018.48,0007.78,0006.37
2022-11-08 00:48:00,,0823.1,5.00,0.00,29.0,27.4,00.0,37.9,30.8,12.1,0001.5,0017.83,0007.78,0006.34
2022-11-08 00:49:00,,0823.2,5.00,0.00,29.0,27.4,00.0,37.9,30.8,12.1,0002.0,0017.51,0007.77,0006.31
2022-11-08 00:50:00,,0823.2,5.00,0.00,29.0,27.4,00.0,37.9,30.8,12.1,0001.7,0018.30,0007.71,0006.31
2022-11-08 00:51:00,,0823.3,5.00,0.00,29.0,27.3,00.0,37.9,30.7,12.1,0001.1,0017.84,0007.68,0006.30
2022-11-08 00:52:00,,0823.3,5.00,0.00,29.0,27.3,00.0,37.9,30.7,12.1,0000.8,0017.60,0007.68,0006.31
2022-11-08 00:53:00,,0823.4,5.01,0.00,28.9,27.3,00.0,37.8,30.7,12.1,0000.9,0018.70,0007.64,0006.31
2022-11-08 00:54:00,,0823.3,4.99,0.00,28.9,27.3,00.0,37.8,30.7,12.1,0000.6,0019.13,0007.60,0006.30
2022-11-08 00:55:00,,0823.3,5.00,0.00,28.9,27.3,00.0,37.8,30.7,12.1,0000.5,0018.64,0007.57,0006.31
2022-11-08 00:56:00,,0823.3,5.00,0.00,28.9,27.3,00.0,37.8,30.7,12.1,0001.3,0018.74,0007.63,0006.31
2022-11-08 00:57:00,,0823.3,5.00,0.00,28.9,27.3,00.0,37.8,30.7,12.1,0001.5,0019.14,0007.68,0006.32
2022-11-08 00:58:00,,0823.4,5.00,0.00,28.9,27.2,00.0,37.8,30.7,12.1,0001.2,0019.85,0007.68,0006.31
2022-11-08 00:59:00,,0823.4,5.00,0.00,28.9,27.2,00.0,37.8,30.6,12.1,0001.4,0019.67,0007.64,0006.32
